Showing default

ORBCOMM FM 33, 25983

Orbit data source: Space-Track

ORBCOMM FM 33, 25983 is a payload satellite owned by Orbcomm (US) in LEO that was launched on Sat, 04 Dec 1999 UTC via a PEGASUS XL/HAPS launch vehicle from the Air Force Eastern Test Range (AFETR). Payload-class satellites include a variety of spacecraft equipped with specific instruments for various scientific and technological missions. These include communications satellites like Starlink; space stations such as the ISS; scientific satellites like the Hubble; Earth observation satellites from companies like Planet Labs, Umbra, and HawkEye 360; GPS; miniature CubeSats for education and research; and military/defense satellites.

Loading next visibility...
Identifier
25983, 1999-065D
Orbit
LEO
Country
Flag of USUS / ORB
Related business
Manufacturer
OSC-Germantown
Mission
Non-operational Commercial Communications
Bus & Motor
MICROSTAR, Unknown motor
Mass
44 kg wet, 44 kg dry
Launch date (UTC)
1999-12-04 (27 years ago)
Launch vehicle
PEGASUS XL/HAPS
Launch site
Air Force Eastern Test Range (AFETR)
Object type
Payload
Rocket body
Debris
Shape & HBR
Cyl + 2 Pan, 4.2 m
Radar Cross Section
1.484 m², Medium (>0.1 m² and < 1m²)

Expand to show TLE details & history
Last TLE update: 2 days ago

TLE from 2 days ago
0 ORBCOMM FM 33
1 25983U 99065D   26171.35480755  .00000517  00000-0  20373-3 0  9991
2 25983  45.0292  47.1095 0008234 109.6879 250.4860 14.40985542389157
Epoch: 2026-06-20T08:30Z
TLE epoch observation values (Epoch: 2026-06-20T08:30:55.372Z)
Latitude
0.00001°
Longitude
10.80816°
Altitude
757.212 km
Speed
7.476 km/s
True Right ascension
03h 08m 26s
True Declination
0° 00' 00"
Sunlit
Object was in daylight at epoch
Visualization orbit readout
Latitude
Unknown
Longitude
Unknown
Altitude
Unknown
Speed
Unknown
Apparent Right ascension
Unknown
Apparent Declination
Unknown
Sunlit
N/A
Visualization observer readout
Local Sidereal Time
23:09:11
Azimuth
Unknown
Elevation
Unknown
Doppler factor
Unknown
Orbital elements
Apogee altitude
762.662 km
Perigee altitude
750.913 km
Semi-major axis
7,134.924 km
Eccentricity
0.00082
Inclination
45.0292°
RAAN
47.1095°
Arg. of periapsis
109.6879°
True anomaly
250.3971°
Mean anomaly
250.486°
Eccentric anomaly
250.44154°
Mean motion
3.6013 °/min
Orbital period
99.96 mins
BSTAR
0.00020373
Loading maneuver chart data...
Computing Atmospheric mass density...

Documentation

Showing up to 5 results
|